Location: Kitchener
(43.4500°N, 80.5000°W)
Time: 01:41:49
(UTC-04:00)

Envisat - Visible Passes

Search period start: 24 September 2018 00:00
Search period end: 04 October 2018 00:00
Orbit: 764 x 766 km, 98.2° (Epoch: 23 September)

Date Brightness Start Highest point End Pass type
(mag) Time Alt. Az. Time Alt. Az. Time Alt. Az.
24 Sep 3.0 20:20:50 10° SSE 20:25:54 89° WSW 20:31:01 10° NNW visible
24 Sep 6.0 22:04:41 10° W 22:05:38 10° W 22:06:36 10° WNW visible
25 Sep 3.4 19:44:31 10° SE 19:49:17 43° ENE 19:54:05 10° N visible
25 Sep 5.2 21:24:25 10° SSW 21:28:28 24° W 21:32:33 10° NW visible
26 Sep 3.8 20:46:35 10° S 20:51:30 51° W 20:56:28 10° NNW visible
27 Sep 2.9 20:09:41 10° SSE 20:14:45 74° ENE 20:19:50 10° N visible
27 Sep 5.8 21:51:48 10° WSW 21:54:18 14° W 21:56:50 10° WNW visible
28 Sep 3.6 19:33:37 10° SE 19:38:11 35° ENE 19:42:45 10° N visible
28 Sep 4.8 21:12:47 10° SSW 21:17:12 30° W 21:21:39 10° NW visible
29 Sep 3.4 20:35:16 10° S 20:40:18 65° W 20:45:22 10° NNW visible
30 Sep 3.0 19:58:37 10° SSE 20:03:36 59° ENE 20:08:36 10° N visible
30 Sep 5.6 21:39:41 10° SW 21:43:00 17° W 21:46:20 10° NW visible
01 Oct 4.4 21:01:17 10° SSW 21:05:57 37° W 21:10:40 10° NNW visible
02 Oct 3.1 20:24:02 10° S 20:29:07 82° WSW 20:34:14 10° NNW visible
03 Oct 3.3 19:47:37 10° SE 19:52:27 47° ENE 19:57:19 10° N visible
03 Oct 5.3 21:27:50 10° SW 21:31:42 22° W 21:35:36 10° NW visible
